Afton Municipal Airport, WY

7:24 AM MDT on October 21, 2019 (GMT -0600)
Afton Municipal

Weather History for KAFO - September, 2019

Change the Weather History Date:

Saturday, September 21, 2019

  Actual Average Record
Temperature  
Mean Temperature 42 °F -  
Max Temperature 50 °F 65 °F 75 °F (2015)
Min Temperature 33 °F 31 °F 21 °F (2018)
Degree Days  
Heating Degree Days 22    
Moisture  
Dew Point 38 °F    
Average Humidity 85    
Maximum Humidity 100    
Minimum Humidity 58    
Precipitation  
Precipitation 0.00 in - - ()
Sea Level Pressure  
Sea Level Pressure 30.17 in    
Wind  
Wind Speed 3 mph ()    
Max Wind Speed 18 mph    
Max Gust Speed 23 mph    
Visibility 9.7 miles    
Events Rain    
Averages and records for this station are not official NWS values.
T = Trace of Precipitation, MM = Missing Value Source: Averaged Metar Reports

Daily Weather History Graph

Daily Weather History Graph

Search for Another Location

Airport or City:

Astronomy

Sep. 21, 2019 Rise Set
Actual Time 7:09 AM MDT 7:23 PM MDT
Civil Twilight 6:41 AM MDT 7:51 PM MDT
Nautical Twilight 6:08 AM MDT 8:24 PM MDT
Astronomical Twilight 5:34 AM MDT 8:58 PM MDT
Moon 11:54 PM MDT 2:28 PM MDT
Length of Visible Light 13h 09m
Length of Day
12h 13m
Waning Gibbous, 54% of the Moon is Illuminated
Sep 21
Waning Gibbous
Sep 21
Last Quarter
Sep 28
New
Oct 5
First Quarter
Oct 13
Full

Hourly Weather History & Observations

Time (MDT) Temp. Windchill Dew Point Humidity Pressure Visibility Wind Dir Wind Speed Gust Speed Precip Events Conditions
12:15 AM 41.0 °F 37.1 °F 37.4 °F 87% 30.10 in 10.0 mi South 5.8 mph - N/A   Light Drizzle
12:35 AM 41.0 °F 37.1 °F 35.6 °F 81% 30.10 in 10.0 mi SE 5.8 mph - N/A   Drizzle
12:55 AM 41.0 °F 39.0 °F 37.4 °F 87% 30.10 in 10.0 mi South 3.5 mph - N/A   Light Drizzle
1:15 AM 41.0 °F - 37.4 °F 87% 30.11 in 10.0 mi Calm Calm - N/A   Overcast
1:35 AM 41.0 °F - 37.4 °F 87% 30.11 in 10.0 mi Calm Calm - N/A   Drizzle
1:55 AM 41.0 °F 39.0 °F 37.4 °F 87% 30.12 in 10.0 mi ENE 3.5 mph - N/A   Light Drizzle
2:35 AM 41.0 °F - 37.4 °F 87% 30.13 in 10.0 mi Calm Calm - N/A   Light Drizzle
2:55 AM 41.0 °F - 37.4 °F 87% 30.13 in 10.0 mi Calm Calm - N/A   Overcast
3:15 AM 41.0 °F - 39.2 °F 93% 30.13 in 10.0 mi Calm Calm - N/A   Overcast
3:35 AM 41.0 °F - 39.2 °F 93% 30.13 in 10.0 mi Calm Calm - N/A   Overcast
3:55 AM 41.0 °F - 39.2 °F 93% 30.13 in 10.0 mi North - - N/A   Overcast
4:15 AM 41.0 °F - 37.4 °F 87% 30.13 in 10.0 mi North - - N/A   Overcast
4:35 AM 41.0 °F 38.0 °F 39.2 °F 93% 30.14 in 10.0 mi NW 4.6 mph - N/A   Drizzle
4:55 AM 41.0 °F - 39.2 °F 93% 30.14 in 10.0 mi Calm Calm - N/A   Overcast
5:15 AM 41.0 °F - 39.2 °F 93% 30.14 in 10.0 mi North - - N/A   Overcast
5:35 AM 41.0 °F - 39.2 °F 93% 30.14 in 10.0 mi Calm Calm - N/A   Overcast
5:55 AM 41.0 °F - 39.2 °F 93% 30.15 in 10.0 mi Calm Calm - N/A   Overcast
6:15 AM 41.0 °F - 39.2 °F 93% 30.15 in 10.0 mi Calm Calm - N/A   Overcast
6:35 AM 41.0 °F - 39.2 °F 93% 30.16 in 10.0 mi Calm Calm - N/A   Overcast
6:55 AM 41.0 °F - 39.2 °F 93% 30.16 in 10.0 mi Calm Calm - N/A   Overcast
7:15 AM 41.0 °F - 39.2 °F 93% 30.16 in 10.0 mi Calm Calm - N/A   Overcast
7:35 AM 41.0 °F - 41.0 °F 100% 30.17 in 10.0 mi Calm Calm - N/A   Light Drizzle
7:55 AM 41.0 °F - 39.2 °F 93% 30.17 in 10.0 mi Calm Calm - N/A   Light Drizzle
8:15 AM 41.0 °F 38.0 °F 41.0 °F 100% 30.18 in 10.0 mi North 4.6 mph - N/A Rain Light Rain
8:35 AM 41.0 °F 39.0 °F 39.2 °F 93% 30.19 in 5.0 mi NNW 3.5 mph - N/A Rain Light Rain
8:55 AM 41.0 °F - 39.2 °F 93% 30.19 in 10.0 mi Calm Calm - N/A   Overcast
9:15 AM 41.0 °F - 39.2 °F 93% 30.20 in 10.0 mi Calm Calm - N/A Rain Rain
9:35 AM 41.0 °F - 39.2 °F 93% 30.20 in 10.0 mi Calm Calm - N/A   Overcast
9:55 AM 42.8 °F - 35.6 °F 76% 30.19 in 10.0 mi Calm Calm - N/A   Light Drizzle
10:15 AM 42.8 °F - 35.6 °F 76% 30.19 in 10.0 mi Calm Calm - N/A   Overcast
10:35 AM 44.6 °F - 37.4 °F 76% 30.19 in 10.0 mi Calm Calm - N/A   Overcast
10:55 AM 44.6 °F - 37.4 °F 76% 30.20 in 10.0 mi Calm Calm - N/A   Overcast
11:15 AM 46.4 °F - 37.4 °F 71% 30.19 in 10.0 mi Calm Calm - N/A   Overcast
11:35 AM 46.4 °F 45.2 °F 37.4 °F 71% 30.19 in 10.0 mi WNW 3.5 mph - N/A   Overcast
11:55 AM 46.4 °F - 35.6 °F 66% 30.19 in 10.0 mi Calm Calm - N/A   Overcast
12:15 PM 48.2 °F - 35.6 °F 62% 30.19 in 10.0 mi Calm Calm - N/A   Overcast
12:35 PM 46.4 °F - 35.6 °F 66% 30.19 in 10.0 mi Calm Calm - N/A Rain Light Rain
12:55 PM 50.0 °F - 35.6 °F 58% 30.17 in 10.0 mi NNE 4.6 mph - N/A   Overcast
1:15 PM 46.4 °F 45.2 °F 35.6 °F 66% 30.18 in 5.0 mi WNW 3.5 mph - N/A Rain Heavy Rain
1:35 PM 44.6 °F 39.2 °F 37.4 °F 76% 30.18 in 10.0 mi South 10.4 mph - N/A   Overcast
1:55 PM 42.8 °F 37.0 °F 37.4 °F 81% 30.18 in 10.0 mi SSE 10.4 mph - N/A   Overcast
2:15 PM 42.8 °F 40.1 °F 37.4 °F 81% 30.18 in 10.0 mi ESE 4.6 mph - N/A Rain Light Rain
2:35 PM 42.8 °F 34.5 °F 37.4 °F 81% 30.19 in 10.0 mi North 18.4 mph 23.0 mph N/A Rain Light Rain
2:55 PM 41.0 °F 33.9 °F 37.4 °F 87% 30.20 in 5.0 mi NNE 12.7 mph - N/A Rain Light Rain
3:15 PM 41.0 °F 35.8 °F 37.4 °F 87% 30.19 in 5.0 mi ENE 8.1 mph - N/A Rain Light Rain
3:35 PM 41.0 °F - 35.6 °F 81% 30.19 in 10.0 mi Calm Calm - N/A   Overcast
3:55 PM 42.8 °F - 37.4 °F 81% 30.19 in 10.0 mi Calm Calm - N/A   Overcast
4:15 PM 44.6 °F 42.2 °F 35.6 °F 71% 30.19 in 10.0 mi SSW 4.6 mph - N/A   Overcast
4:35 PM 42.8 °F 38.0 °F 37.4 °F 81% 30.18 in 10.0 mi South 8.1 mph - N/A   Overcast
4:55 PM 42.8 °F 38.0 °F 37.4 °F 81% 30.17 in 10.0 mi South 8.1 mph - N/A   Overcast
5:15 PM 42.8 °F 37.5 °F 37.4 °F 81% 30.17 in 10.0 mi South 9.2 mph - N/A   Overcast
5:35 PM 42.8 °F 38.6 °F 37.4 °F 81% 30.17 in 10.0 mi South 6.9 mph - N/A   Mostly Cloudy
5:55 PM 44.6 °F 41.4 °F 37.4 °F 76% 30.17 in 10.0 mi South 5.8 mph - N/A   Overcast
6:15 PM 44.6 °F 41.4 °F 37.4 °F 76% 30.17 in 10.0 mi South 5.8 mph - N/A   Overcast
6:35 PM 44.6 °F 43.1 °F 37.4 °F 76% 30.18 in 10.0 mi SW 3.5 mph - N/A   Overcast
6:55 PM 44.6 °F 40.7 °F 37.4 °F 76% 30.18 in 10.0 mi South 6.9 mph - N/A   Overcast
7:55 PM 41.0 °F 39.0 °F 39.2 °F 93% 30.19 in 10.0 mi SW 3.5 mph - N/A   Overcast
8:15 PM 41.0 °F - 39.2 °F 93% 30.19 in 10.0 mi Calm Calm - N/A   Overcast
8:35 PM 41.0 °F 39.0 °F 39.2 °F 93% 30.20 in 10.0 mi SSW 3.5 mph - N/A   Overcast
8:55 PM 41.0 °F 38.0 °F 37.4 °F 87% 30.20 in 10.0 mi South 4.6 mph - N/A   Overcast
9:15 PM 41.0 °F 39.0 °F 37.4 °F 87% 30.21 in 10.0 mi South 3.5 mph - N/A   Overcast
9:35 PM 41.0 °F 37.1 °F 37.4 °F 87% 30.20 in 10.0 mi South 5.8 mph - N/A   Overcast
9:55 PM 39.2 °F 37.0 °F 37.4 °F 93% 30.20 in 10.0 mi SSW 3.5 mph - N/A   Overcast
10:15 PM 37.4 °F 33.8 °F 37.4 °F 100% 30.21 in 10.0 mi SW 4.6 mph - N/A   Overcast
10:35 PM 37.4 °F 34.9 °F 35.6 °F 93% 30.21 in 10.0 mi SSE 3.5 mph - N/A   Overcast
10:55 PM 37.4 °F - 35.6 °F 93% 30.21 in 10.0 mi Calm Calm - N/A   Mostly Cloudy
11:15 PM 37.4 °F - 35.6 °F 93% 30.21 in 10.0 mi Calm Calm - N/A   Overcast
11:35 PM 35.6 °F 31.7 °F 33.8 °F 93% 30.21 in 10.0 mi South 4.6 mph - N/A   Scattered Clouds
11:55 PM 33.8 °F 30.8 °F 33.8 °F 100% 30.20 in 10.0 mi SW 3.5 mph - N/A   Clear